Year,Month,Day,Hour,Minute,Value (Times are PST for temperature in C)
2010,05,06,06,24,6.60
2010,05,06,06,25,6.60
2010,05,06,06,26,6.60
2010,05,06,06,27,6.60
2010,05,06,06,28,6.60
2010,05,06,06,29,6.60
2010,05,06,06,30,6.60
2010,05,06,06,31,6.60
2010,05,06,06,32,6.60
2010,05,06,06,33,6.60
2010,05,06,06,34,6.50
2010,05,06,06,35,6.40
2010,05,06,06,36,6.30
2010,05,06,06,37,6.20
2010,05,06,06,38,6.20
2010,05,06,06,39,6.00
2010,05,06,06,40,6.00
2010,05,06,06,41,5.90
2010,05,06,06,42,5.90
2010,05,06,06,43,5.80
2010,05,06,06,44,5.80
2010,05,06,06,45,5.80
2010,05,06,06,46,5.80
2010,05,06,06,47,5.80
2010,05,06,06,48,5.80
2010,05,06,06,49,5.80
2010,05,06,06,50,5.80
2010,05,06,06,51,5.90
2010,05,06,06,52,5.90
2010,05,06,06,53,5.90
2010,05,06,06,54,6.00
2010,05,06,06,55,6.00
2010,05,06,06,56,6.10
2010,05,06,06,57,6.20
2010,05,06,06,58,6.20
2010,05,06,06,59,6.30
2010,05,06,07,00,6.30
2010,05,06,07,01,6.40
2010,05,06,07,02,6.40
2010,05,06,07,03,6.40
2010,05,06,07,04,6.40
2010,05,06,07,05,6.50
2010,05,06,07,06,6.60
2010,05,06,07,07,6.70
2010,05,06,07,08,6.80
2010,05,06,07,09,6.80
2010,05,06,07,10,6.90
2010,05,06,07,11,7.00
2010,05,06,07,12,7.10
2010,05,06,07,13,7.20
2010,05,06,07,14,7.40
2010,05,06,07,15,7.60
2010,05,06,07,16,7.70
2010,05,06,07,17,7.80
2010,05,06,07,18,7.80
2010,05,06,07,19,7.90
2010,05,06,07,20,8.00
2010,05,06,07,21,8.10
2010,05,06,07,22,8.20
2010,05,06,07,23,8.30
2010,05,06,07,24,8.40
2010,05,06,07,25,8.40
2010,05,06,07,26,8.50
2010,05,06,07,27,8.50
2010,05,06,07,28,8.60
2010,05,06,07,29,8.70
2010,05,06,07,30,8.70
2010,05,06,07,31,8.80
2010,05,06,07,32,8.80
2010,05,06,07,33,8.90
2010,05,06,07,34,8.90
2010,05,06,07,35,8.90
2010,05,06,07,36,8.90
2010,05,06,07,37,8.90
2010,05,06,07,38,8.90
2010,05,06,07,39,8.90
2010,05,06,07,40,8.90
2010,05,06,07,41,8.90
2010,05,06,07,42,8.90
2010,05,06,07,43,9.00
2010,05,06,07,44,9.10
2010,05,06,07,45,9.20
2010,05,06,07,46,9.20
2010,05,06,07,47,9.20
2010,05,06,07,48,9.20
2010,05,06,07,49,9.10
2010,05,06,07,50,9.00
2010,05,06,07,51,9.00
2010,05,06,07,52,9.00
2010,05,06,07,53,8.90
2010,05,06,07,54,8.90
2010,05,06,07,55,8.80
2010,05,06,07,56,8.80
2010,05,06,07,57,8.90
2010,05,06,07,58,9.00
2010,05,06,07,59,9.00
2010,05,06,08,00,9.10
2010,05,06,08,01,9.20
2010,05,06,08,02,9.20
2010,05,06,08,03,9.30
2010,05,06,08,04,9.30
2010,05,06,08,05,9.30
2010,05,06,08,06,9.40
2010,05,06,08,07,9.50
2010,05,06,08,08,9.60
2010,05,06,08,09,9.70
2010,05,06,08,10,9.70
2010,05,06,08,11,9.70
2010,05,06,08,12,9.70
2010,05,06,08,13,9.80
2010,05,06,08,14,9.80
2010,05,06,08,15,9.90
2010,05,06,08,16,9.90
2010,05,06,08,17,9.90
2010,05,06,08,18,10.00
2010,05,06,08,19,10.10
2010,05,06,08,20,10.10
2010,05,06,08,21,10.10
2010,05,06,08,22,10.10
2010,05,06,08,23,10.20
2010,05,06,08,24,10.20
2010,05,06,08,25,10.30
2010,05,06,08,26,10.30
2010,05,06,08,27,10.30
2010,05,06,08,28,10.40
2010,05,06,08,29,10.40
2010,05,06,08,30,10.50
2010,05,06,08,31,10.60
2010,05,06,08,32,10.70
2010,05,06,08,33,10.70
2010,05,06,08,34,10.80
2010,05,06,08,35,10.90
2010,05,06,08,36,10.90
2010,05,06,08,37,10.90
2010,05,06,08,38,10.90
2010,05,06,08,39,10.90
2010,05,06,08,40,11.00
2010,05,06,08,41,11.10
2010,05,06,08,42,11.00
2010,05,06,08,43,10.90
2010,05,06,08,44,10.90
2010,05,06,08,45,11.00
2010,05,06,08,46,11.10
2010,05,06,08,47,11.10
2010,05,06,08,48,11.00
2010,05,06,08,49,10.90
2010,05,06,08,50,10.90
2010,05,06,08,51,11.00
2010,05,06,08,52,11.10
2010,05,06,08,53,11.30
2010,05,06,08,54,11.40
2010,05,06,08,55,11.40
2010,05,06,08,56,11.50
2010,05,06,08,57,11.60
2010,05,06,08,58,11.70
2010,05,06,08,59,11.80
2010,05,06,09,00,11.80
2010,05,06,09,01,11.80
2010,05,06,09,02,11.80
2010,05,06,09,03,11.80
2010,05,06,09,04,11.80
2010,05,06,09,05,11.80
2010,05,06,09,06,11.70
2010,05,06,09,07,11.60
2010,05,06,09,08,11.50
2010,05,06,09,09,11.40
2010,05,06,09,10,11.40
2010,05,06,09,11,11.40
2010,05,06,09,12,11.40
2010,05,06,09,13,11.40
2010,05,06,09,14,11.40
2010,05,06,09,15,11.40
2010,05,06,09,16,11.50
2010,05,06,09,17,11.50
2010,05,06,09,18,11.40
2010,05,06,09,19,11.60
2010,05,06,09,20,11.60
2010,05,06,09,21,11.60
2010,05,06,09,22,11.60
2010,05,06,09,23,11.60
2010,05,06,09,24,11.60
2010,05,06,09,25,11.70
2010,05,06,09,26,11.80
2010,05,06,09,27,11.90
2010,05,06,09,28,12.00
2010,05,06,09,29,12.00
2010,05,06,09,30,12.00
2010,05,06,09,31,12.00
2010,05,06,09,32,12.00
2010,05,06,09,33,12.00
2010,05,06,09,34,11.90
2010,05,06,09,35,11.90
2010,05,06,09,36,11.90
2010,05,06,09,37,11.90
2010,05,06,09,38,12.00
2010,05,06,09,39,12.00
2010,05,06,09,40,11.90
2010,05,06,09,41,11.90
2010,05,06,09,42,11.90
2010,05,06,09,43,12.00
2010,05,06,09,44,12.00
2010,05,06,09,45,12.00
2010,05,06,09,46,12.00
2010,05,06,09,47,12.00
2010,05,06,09,48,11.90
2010,05,06,09,49,11.90
2010,05,06,09,50,11.90
2010,05,06,09,51,11.90
2010,05,06,09,52,11.80
2010,05,06,09,53,11.80
2010,05,06,09,54,11.80
2010,05,06,09,55,11.80
2010,05,06,09,56,11.80
2010,05,06,09,57,11.90
2010,05,06,09,58,12.00
2010,05,06,09,59,12.20
2010,05,06,10,00,12.30
2010,05,06,10,01,12.30
2010,05,06,10,02,12.30
2010,05,06,10,03,12.30
2010,05,06,10,04,12.40
2010,05,06,10,05,12.60
2010,05,06,10,06,12.70
2010,05,06,10,07,12.70
2010,05,06,10,08,12.70
2010,05,06,10,09,12.60
2010,05,06,10,10,12.50
2010,05,06,10,11,12.40
2010,05,06,10,12,12.40
2010,05,06,10,13,12.40
2010,05,06,10,14,12.40
2010,05,06,10,15,12.20
2010,05,06,10,16,12.00
2010,05,06,10,17,12.00
2010,05,06,10,18,11.90
2010,05,06,10,19,11.80
2010,05,06,10,20,11.80
2010,05,06,10,21,11.80
2010,05,06,10,22,11.80
2010,05,06,10,23,11.80
2010,05,06,10,24,11.80
2010,05,06,10,25,11.70
2010,05,06,10,26,11.70
2010,05,06,10,27,11.70
2010,05,06,10,28,11.70
2010,05,06,10,29,11.70
2010,05,06,10,30,11.70
2010,05,06,10,31,11.80
2010,05,06,10,32,11.70
2010,05,06,10,33,11.70
2010,05,06,10,34,11.70
2010,05,06,10,35,11.80
2010,05,06,10,36,11.80
2010,05,06,10,37,11.70
2010,05,06,10,38,11.70
2010,05,06,10,39,11.70
2010,05,06,10,40,11.70
2010,05,06,10,41,11.70
2010,05,06,10,42,11.60
2010,05,06,10,43,11.60
2010,05,06,10,44,11.70
2010,05,06,10,45,11.80
2010,05,06,10,46,11.80
2010,05,06,10,47,11.60
2010,05,06,10,48,11.40
2010,05,06,10,49,11.40
2010,05,06,10,50,11.40
2010,05,06,10,51,11.40
2010,05,06,10,52,11.40
2010,05,06,10,53,11.40
2010,05,06,10,54,11.40
2010,05,06,10,55,11.30
2010,05,06,10,56,11.30
2010,05,06,10,57,11.20
2010,05,06,10,58,11.20
2010,05,06,10,59,11.30
2010,05,06,11,00,11.20
2010,05,06,11,01,11.20
2010,05,06,11,02,11.10
2010,05,06,11,03,11.10
2010,05,06,11,04,11.10
2010,05,06,11,05,11.20
2010,05,06,11,06,11.30
2010,05,06,11,07,11.50
2010,05,06,11,08,11.60
2010,05,06,11,09,11.60
2010,05,06,11,10,11.70
2010,05,06,11,11,11.80
2010,05,06,11,12,11.70
2010,05,06,11,13,11.70
2010,05,06,11,14,11.60
2010,05,06,11,15,11.60
2010,05,06,11,16,11.70
2010,05,06,11,17,11.70
2010,05,06,11,18,11.70
2010,05,06,11,19,11.70
2010,05,06,11,20,11.70
2010,05,06,11,21,11.80
2010,05,06,11,22,11.90
2010,05,06,11,23,12.00
2010,05,06,11,24,12.00
2010,05,06,11,25,12.00
2010,05,06,11,26,12.00
2010,05,06,11,27,11.90
2010,05,06,11,28,11.80
2010,05,06,11,29,11.70
2010,05,06,11,30,11.70
2010,05,06,11,31,11.70
2010,05,06,11,32,11.80
2010,05,06,11,33,11.80
2010,05,06,11,34,11.80
2010,05,06,11,35,11.80
2010,05,06,11,36,11.80
2010,05,06,11,37,11.80
2010,05,06,11,38,11.70
2010,05,06,11,39,11.60
2010,05,06,11,40,11.60
2010,05,06,11,41,11.60
2010,05,06,11,42,11.50
2010,05,06,11,43,11.40
2010,05,06,11,44,11.60
2010,05,06,11,45,11.70
2010,05,06,11,46,11.80
2010,05,06,11,47,11.80
2010,05,06,11,48,11.80
2010,05,06,11,49,11.80
2010,05,06,11,50,11.60
2010,05,06,11,51,11.60
2010,05,06,11,52,11.50
2010,05,06,11,53,11.60
2010,05,06,11,54,11.60
2010,05,06,11,55,11.60
2010,05,06,11,56,11.60
2010,05,06,11,57,11.60
2010,05,06,11,58,11.70
2010,05,06,11,59,11.80
2010,05,06,12,00,11.80
2010,05,06,12,01,11.90
2010,05,06,12,02,12.00
2010,05,06,12,03,12.00
2010,05,06,12,04,12.00
2010,05,06,12,05,12.10
2010,05,06,12,06,12.20
2010,05,06,12,07,12.20
2010,05,06,12,08,12.20
2010,05,06,12,09,12.20
2010,05,06,12,10,12.20
2010,05,06,12,11,12.20
2010,05,06,12,12,12.20
2010,05,06,12,13,12.30
2010,05,06,12,14,12.30
2010,05,06,12,15,12.30
2010,05,06,12,16,12.20
2010,05,06,12,17,12.20
2010,05,06,12,18,12.20
2010,05,06,12,19,12.20
2010,05,06,12,20,12.00
2010,05,06,12,21,12.00
2010,05,06,12,22,12.00
2010,05,06,12,23,12.00
2010,05,06,12,24,12.00
2010,05,06,12,25,12.00
2010,05,06,12,26,12.00
2010,05,06,12,27,12.10
2010,05,06,12,28,12.10
2010,05,06,12,29,12.00
2010,05,06,12,30,12.00
2010,05,06,12,31,11.80
2010,05,06,12,32,11.80
2010,05,06,12,33,11.80
2010,05,06,12,34,11.80
2010,05,06,12,35,11.70
2010,05,06,12,36,11.70
2010,05,06,12,37,11.80
2010,05,06,12,38,11.80
2010,05,06,12,39,12.00
2010,05,06,12,40,12.00
2010,05,06,12,41,12.20
2010,05,06,12,42,12.30
2010,05,06,12,43,12.30
2010,05,06,12,44,12.30
2010,05,06,12,45,12.50
2010,05,06,12,46,12.60
2010,05,06,12,47,12.80
2010,05,06,12,48,12.80
2010,05,06,12,49,12.80
2010,05,06,12,50,12.70
2010,05,06,12,51,12.60
2010,05,06,12,52,12.50
2010,05,06,12,53,12.40
2010,05,06,12,54,12.40
2010,05,06,12,55,12.30
2010,05,06,12,56,12.30
2010,05,06,12,57,12.30
2010,05,06,12,58,12.50
2010,05,06,12,59,12.60
2010,05,06,13,00,12.60
2010,05,06,13,01,12.60
2010,05,06,13,02,12.70
2010,05,06,13,03,12.70
2010,05,06,13,04,12.80
2010,05,06,13,05,12.80
2010,05,06,13,06,12.80
2010,05,06,13,07,12.90
2010,05,06,13,08,13.00
2010,05,06,13,09,13.00
2010,05,06,13,10,13.10
2010,05,06,13,11,13.20
2010,05,06,13,12,13.20
2010,05,06,13,13,13.20
2010,05,06,13,14,13.30
2010,05,06,13,15,13.30
2010,05,06,13,16,13.40
2010,05,06,13,17,13.50
2010,05,06,13,18,13.50
2010,05,06,13,19,13.40
2010,05,06,13,20,13.50
2010,05,06,13,21,13.50
2010,05,06,13,22,13.50
2010,05,06,13,23,13.40
2010,05,06,13,24,13.30
2010,05,06,13,25,13.30
2010,05,06,13,26,13.30
2010,05,06,13,27,13.10
2010,05,06,13,28,13.00
2010,05,06,13,29,12.90
2010,05,06,13,30,12.90
2010,05,06,13,31,12.90
2010,05,06,13,32,12.90
2010,05,06,13,33,12.90
2010,05,06,13,34,13.00
2010,05,06,13,35,12.90
2010,05,06,13,36,12.90
2010,05,06,13,37,12.90
2010,05,06,13,38,12.80
2010,05,06,13,39,12.80
2010,05,06,13,40,12.80
2010,05,06,13,41,12.80
2010,05,06,13,42,12.80
2010,05,06,13,43,12.80
2010,05,06,13,44,12.80
2010,05,06,13,45,12.90
2010,05,06,13,46,13.00
2010,05,06,13,47,13.00
2010,05,06,13,48,12.80
2010,05,06,13,49,12.70
2010,05,06,13,50,12.50
2010,05,06,13,51,12.40
2010,05,06,13,52,12.30
2010,05,06,13,53,12.30
2010,05,06,13,54,12.20
2010,05,06,13,55,12.00
2010,05,06,13,56,12.00
2010,05,06,13,57,12.10
2010,05,06,13,58,12.10
2010,05,06,13,59,12.10
2010,05,06,14,00,12.20
2010,05,06,14,01,12.30
2010,05,06,14,02,12.30
2010,05,06,14,03,12.30
2010,05,06,14,04,12.30
2010,05,06,14,05,12.30
2010,05,06,14,06,12.30
2010,05,06,14,07,12.30
2010,05,06,14,08,12.50
2010,05,06,14,09,12.50
2010,05,06,14,10,12.40
2010,05,06,14,11,12.40
2010,05,06,14,12,12.40
2010,05,06,14,13,12.30
2010,05,06,14,14,12.20
2010,05,06,14,15,12.10
2010,05,06,14,16,12.20
2010,05,06,14,17,12.20
2010,05,06,14,18,12.20
2010,05,06,14,19,12.30
2010,05,06,14,20,12.30
2010,05,06,14,21,12.30
2010,05,06,14,22,12.40
2010,05,06,14,23,12.40
2010,05,06,14,24,12.30
2010,05,06,14,25,12.30
2010,05,06,14,26,12.30
2010,05,06,14,27,12.30
2010,05,06,14,28,12.20
2010,05,06,14,29,12.20
2010,05,06,14,30,12.20
2010,05,06,14,31,12.20
2010,05,06,14,32,12.20
2010,05,06,14,33,12.20
2010,05,06,14,34,12.30
2010,05,06,14,35,12.20
2010,05,06,14,36,12.10
2010,05,06,14,37,12.00
2010,05,06,14,38,12.00
2010,05,06,14,39,12.00
2010,05,06,14,40,12.00
2010,05,06,14,41,12.00
2010,05,06,14,42,11.90
2010,05,06,14,43,11.80
2010,05,06,14,44,11.80
2010,05,06,14,45,11.80
2010,05,06,14,46,11.80
2010,05,06,14,47,11.80
2010,05,06,14,48,11.90
2010,05,06,14,49,11.90
2010,05,06,14,50,12.00
2010,05,06,14,51,12.10
2010,05,06,14,52,12.10
2010,05,06,14,53,12.10
2010,05,06,14,54,12.10
2010,05,06,14,55,12.20
2010,05,06,14,56,12.30
2010,05,06,14,57,12.30
2010,05,06,14,58,12.30
2010,05,06,14,59,12.30
2010,05,06,15,00,12.20
2010,05,06,15,01,12.20
2010,05,06,15,02,12.10
2010,05,06,15,03,12.10
2010,05,06,15,04,12.20
2010,05,06,15,05,12.20
2010,05,06,15,06,12.20
2010,05,06,15,07,12.30
2010,05,06,15,08,12.30
2010,05,06,15,09,12.40
2010,05,06,15,10,12.40
2010,05,06,15,11,12.50
2010,05,06,15,12,12.60
2010,05,06,15,13,12.60
2010,05,06,15,14,12.60
2010,05,06,15,15,12.50
2010,05,06,15,16,12.50
2010,05,06,15,17,12.60
2010,05,06,15,18,12.70
2010,05,06,15,19,12.70
2010,05,06,15,20,12.80
2010,05,06,15,21,13.00
2010,05,06,15,22,13.10
2010,05,06,15,23,13.20
2010,05,06,15,24,13.30
2010,05,06,15,25,13.40
2010,05,06,15,26,13.50
2010,05,06,15,27,13.50
2010,05,06,15,28,13.60
2010,05,06,15,29,13.70
2010,05,06,15,30,13.80
2010,05,06,15,31,13.90
2010,05,06,15,32,13.80
2010,05,06,15,33,13.70
2010,05,06,15,34,13.60
2010,05,06,15,35,13.50
2010,05,06,15,36,13.40
2010,05,06,15,37,13.50
2010,05,06,15,38,13.40
2010,05,06,15,39,13.50
2010,05,06,15,40,13.60
2010,05,06,15,41,13.60
2010,05,06,15,42,13.70
2010,05,06,15,43,13.70
2010,05,06,15,44,13.70
2010,05,06,15,45,13.60
2010,05,06,15,46,13.60
2010,05,06,15,47,13.50
2010,05,06,15,48,13.50
2010,05,06,15,49,13.60
2010,05,06,15,50,13.60
2010,05,06,15,51,13.70
2010,05,06,15,52,13.60
2010,05,06,15,53,13.50
2010,05,06,15,54,13.30
2010,05,06,15,55,13.00
2010,05,06,15,56,12.80
2010,05,06,15,57,12.70
2010,05,06,15,58,12.80
2010,05,06,15,59,12.70
2010,05,06,16,00,12.70
2010,05,06,16,01,12.70
2010,05,06,16,02,12.60
2010,05,06,16,03,12.50
2010,05,06,16,04,12.40
2010,05,06,16,05,12.50
2010,05,06,16,06,12.50
2010,05,06,16,07,12.50
2010,05,06,16,08,12.40
2010,05,06,16,09,12.30
2010,05,06,16,10,12.30
2010,05,06,16,11,12.30
2010,05,06,16,12,12.40
2010,05,06,16,13,12.40
2010,05,06,16,14,12.50
2010,05,06,16,15,12.50
2010,05,06,16,16,12.50
2010,05,06,16,17,12.40
2010,05,06,16,18,12.20
2010,05,06,16,19,12.10
2010,05,06,16,20,12.10
2010,05,06,16,21,12.00
2010,05,06,16,22,11.90
2010,05,06,16,23,11.80
2010,05,06,16,24,11.80
2010,05,06,16,25,11.80
2010,05,06,16,26,11.70
2010,05,06,16,27,11.70
2010,05,06,16,28,11.60
2010,05,06,16,29,11.60
2010,05,06,16,30,11.70
2010,05,06,16,31,11.70
2010,05,06,16,32,11.80
2010,05,06,16,33,11.70
2010,05,06,16,34,11.70
2010,05,06,16,35,11.90
2010,05,06,16,36,11.90
2010,05,06,16,37,12.00
2010,05,06,16,38,12.10
2010,05,06,16,39,12.10
2010,05,06,16,40,12.00
2010,05,06,16,41,11.90
2010,05,06,16,42,12.00
2010,05,06,16,43,12.00
2010,05,06,16,44,12.00
2010,05,06,16,45,12.10
2010,05,06,16,46,12.20
2010,05,06,16,47,12.10
2010,05,06,16,48,12.20
2010,05,06,16,49,12.20
2010,05,06,16,50,12.20
2010,05,06,16,51,12.10
2010,05,06,16,52,12.10
2010,05,06,16,53,12.20
2010,05,06,16,54,12.30
2010,05,06,16,55,12.50
2010,05,06,16,56,12.60
2010,05,06,16,57,12.80
2010,05,06,16,58,12.90
2010,05,06,16,59,12.90
2010,05,06,17,00,12.90
2010,05,06,17,01,13.00
2010,05,06,17,02,13.10
2010,05,06,17,03,13.20
2010,05,06,17,04,13.40
2010,05,06,17,05,13.50
2010,05,06,17,06,13.50
2010,05,06,17,07,13.60
2010,05,06,17,08,13.60
2010,05,06,17,09,13.60
2010,05,06,17,10,13.70
2010,05,06,17,11,13.70
2010,05,06,17,12,13.60
2010,05,06,17,13,13.60
2010,05,06,17,14,13.50
2010,05,06,17,15,13.50
2010,05,06,17,16,13.60
2010,05,06,17,17,13.60
2010,05,06,17,18,13.60
2010,05,06,17,19,13.50
2010,05,06,17,20,13.50
2010,05,06,17,21,13.40
2010,05,06,17,22,13.30
2010,05,06,17,23,13.30
2010,05,06,17,24,13.30
2010,05,06,17,25,13.30
2010,05,06,17,26,13.20
2010,05,06,17,27,13.10
2010,05,06,17,28,13.10
2010,05,06,17,29,13.10
2010,05,06,17,30,13.10
2010,05,06,17,31,13.20
2010,05,06,17,32,13.30
2010,05,06,17,33,13.30
2010,05,06,17,34,13.30
2010,05,06,17,35,13.30
2010,05,06,17,36,13.20
2010,05,06,17,37,13.20
2010,05,06,17,38,13.10
2010,05,06,17,39,13.10
2010,05,06,17,40,13.00
2010,05,06,17,41,13.00
2010,05,06,17,42,13.00
2010,05,06,17,43,12.90
2010,05,06,17,44,12.90
2010,05,06,17,45,12.80
2010,05,06,17,46,12.80
2010,05,06,17,47,12.80
2010,05,06,17,48,12.90
2010,05,06,17,49,12.90
2010,05,06,17,50,12.90
2010,05,06,17,51,12.90
2010,05,06,17,52,12.90
2010,05,06,17,53,12.90
2010,05,06,17,54,12.90
2010,05,06,17,55,12.90
2010,05,06,17,56,12.90
2010,05,06,17,57,12.90
2010,05,06,17,58,12.90
2010,05,06,17,59,12.90
